Weather History for KTVC - April, 2014

Change the Weather History Date:

Tuesday, April 1, 2014

  Actual Average Record
Temperature  
Mean Temperature 40 °F 37 °F  
Max Temperature 51 °F 47 °F 82 °F (2010)
Min Temperature 29 °F 27 °F 3 °F (1923)
Degree Days  
Heating Degree Days 25 28  
Month to date heating degree days 25 28  
Since 1 July heating degree days 7078 6430  
Cooling Degree Days 0 0  
Month to date cooling degree days 0 0  
Year to date cooling degree days 0 0  
Moisture  
Dew Point 29 °F    
Average Humidity 60    
Maximum Humidity 76    
Minimum Humidity 44    
Precipitation  
Precipitation 0.06 in 0.09 in 0.56 in (1959)
Month to date precipitation 0.06 0.09  
Year to date precipitation 2.40 6.27  
Sea Level Pressure  
Sea Level Pressure 29.75 in    
Wind  
Wind Speed 13 mph (SW)    
Max Wind Speed 24 mph    
Max Gust Speed 31 mph    
Visibility 10 miles    
Events Rain , Snow    
T = Trace of Precipitation, MM = Missing Value Source: NWS Daily Summary

Daily Weather History Graph

Daily Weather History Graph

Search for Another Location

Airport or City:

Trip Planner

Search our weather history database for the weather conditions in past years. The results will help you decide how hot, cold, wet, or windy it might be!

Date:

Astronomy

Apr. 01, 2014 Rise Set
Actual Time 7:23 AM EDT 8:09 PM EDT
Civil Twilight 6:53 AM EDT 8:39 PM EDT
Nautical Twilight 6:18 AM EDT 9:14 PM EDT
Astronomical Twilight 5:42 AM EDT 9:51 PM EDT
Moon 8:20 AM EDT (4/1) 10:37 PM EDT (4/1)
Length of Visible Light 13h 45m
Length of Day
12h 46m
Waxing Crescent, 4% of the Moon is Illuminated
Apr 1
Waxing Crescent
Apr 7
First Quarter
Apr 15
Full
Apr 22
Last Quarter
Apr 29
New

Hourly Weather History & Observations

Time (EDT) Temp. Windchill Dew Point Humidity Pressure Visibility Wind Dir Wind Speed Gust Speed Precip Events Conditions
12:53 AM 51.1 °F - 30.0 °F 44% 29.78 in 10.0 mi SSE 12.7 mph 21.9 mph N/A   Overcast
1:53 AM 50.0 °F - 32.0 °F 50% 29.83 in 10.0 mi South 8.1 mph 17.3 mph 0.00 in Rain Light Rain
2:53 AM 45.0 °F 40.6 °F 39.0 °F 80% 29.78 in 10.0 mi South 8.1 mph - 0.06 in   Overcast
3:53 AM 46.0 °F 40.2 °F 39.0 °F 76% 29.69 in 10.0 mi SE 12.7 mph 20.7 mph 0.00 in   Overcast
4:53 AM 46.9 °F - 37.9 °F 71% 29.66 in 10.0 mi SSE 16.1 mph 27.6 mph N/A   Overcast
5:53 AM 46.0 °F 39.9 °F 37.9 °F 73% 29.64 in 10.0 mi SSE 13.8 mph 25.3 mph N/A   Clear
6:53 AM 45.0 °F 39.3 °F 37.0 °F 74% 29.62 in 10.0 mi SSE 11.5 mph 24.2 mph N/A   Mostly Cloudy
7:53 AM 45.0 °F 39.3 °F 37.0 °F 74% 29.62 in 10.0 mi SSE 11.5 mph 20.7 mph N/A   Overcast
8:53 AM 46.0 °F 42.5 °F 37.9 °F 73% 29.60 in 10.0 mi Variable 6.9 mph 16.1 mph N/A   Mostly Cloudy
9:53 AM 46.9 °F - 37.9 °F 71% 29.59 in 10.0 mi Variable 4.6 mph - N/A   Overcast
10:53 AM 44.1 °F 38.6 °F 30.9 °F 60% 29.61 in 10.0 mi SW 10.4 mph 23.0 mph N/A   Overcast
11:08 AM 42.1 °F 34.9 °F 28.9 °F 60% 29.62 in 10.0 mi WSW 13.8 mph 21.9 mph N/A   Overcast
11:53 AM 39.0 °F 31.8 °F 28.9 °F 67% 29.65 in 10.0 mi WSW 11.5 mph 23.0 mph N/A   Overcast
12:10 PM 37.9 °F 29.2 °F 28.0 °F 68% 29.64 in 10.0 mi SW 15.0 mph 24.2 mph N/A   Overcast
12:53 PM 35.1 °F 25.2 °F 27.0 °F 72% 29.67 in 10.0 mi WSW 16.1 mph 23.0 mph N/A   Overcast
1:53 PM 33.1 °F 26.1 °F 27.0 °F 78% 29.70 in 10.0 mi WSW 8.1 mph 20.7 mph N/A   Overcast
2:53 PM 32.0 °F 21.2 °F 24.1 °F 73% 29.73 in 10.0 mi WSW 16.1 mph 25.3 mph N/A   Overcast
3:53 PM 32.0 °F 21.2 °F 24.1 °F 73% 29.75 in 7.0 mi SW 16.1 mph 27.6 mph 0.00 in Snow Light Snow
4:53 PM 32.0 °F 21.6 °F 24.1 °F 73% 29.76 in 10.0 mi WSW 15.0 mph 21.9 mph 0.00 in   Overcast
5:53 PM 32.0 °F 22.5 °F 24.1 °F 73% 29.79 in 4.0 mi WSW 12.7 mph 29.9 mph 0.00 in Snow Light Snow
6:53 PM 32.0 °F 21.6 °F 24.1 °F 73% 29.83 in 8.0 mi WSW 15.0 mph 25.3 mph 0.00 in Snow Light Snow
7:53 PM 32.0 °F 22.1 °F 21.9 °F 66% 29.87 in 8.0 mi West 13.8 mph 21.9 mph 0.00 in Snow Light Snow
8:53 PM 30.9 °F 18.1 °F 21.0 °F 67% 29.92 in 10.0 mi West 21.9 mph 26.5 mph 0.00 in   Overcast
9:44 PM 30.9 °F 20.2 °F 19.9 °F 64% 29.94 in 10.0 mi West 15.0 mph 24.2 mph N/A   Overcast
9:53 PM 30.9 °F 19.1 °F 19.9 °F 64% 29.96 in 10.0 mi West 18.4 mph 27.6 mph N/A   Overcast
10:53 PM 30.9 °F 22.8 °F 19.9 °F 64% 29.99 in - West 9.2 mph - N/A   Overcast
11:53 PM 30.0 °F 19.1 °F 18.0 °F 61% 30.01 in - WNW 15.0 mph - N/A   Clear